Location: Zagreb
(45.8000°N, 16.0000°E)
Time: 10:02:01
(UTC+02:00)

ISS - Visible Passes

Search period start: 01 April 2015 00:00
Search period end: 11 April 2015 00:00
Orbit: 396 x 405 km, 51.6° (Epoch: 01 April)

Date Brightness Start Highest point End Pass type
(mag) Time Alt. Az. Time Alt. Az. Time Alt. Az.
01 Apr -1.7 05:16:31 19° SSW 05:16:31 19° SSW 05:18:06 10° S visible
03 Apr -0.5 21:41:49 10° SW 21:41:58 11° SW 21:41:58 11° SW visible
04 Apr -2.7 20:48:34 10° SSW 20:51:33 34° SE 20:51:51 33° SE visible
05 Apr -1.8 19:55:42 10° S 19:58:06 19° SE 20:00:32 10° E visible
05 Apr -3.1 21:30:57 10° WSW 21:34:01 68° WNW 21:34:01 68° WNW visible
06 Apr -3.4 20:37:20 10° SW 20:40:35 69° SSE 20:43:13 14° ENE visible
06 Apr -0.9 22:14:08 10° W 22:15:50 24° WNW 22:15:50 24° WNW visible
07 Apr -2.3 21:20:12 10° W 21:23:21 44° NNW 21:24:46 26° NE visible
08 Apr -2.9 20:26:20 10° WSW 20:29:34 65° NNW 20:32:49 10° ENE visible
08 Apr -1.4 22:03:26 10° WNW 22:06:04 28° NNW 22:06:04 28° NNW visible
09 Apr -1.7 21:09:26 10° WNW 21:12:26 32° N 21:14:38 15° NE visible
09 Apr -0.2 22:46:25 10° NW 22:47:12 15° NW 22:47:12 15° NW visible
10 Apr -2.1 20:15:24 10° W 20:18:32 41° NNW 20:21:39 10° NE visible
10 Apr -1.6 21:52:32 10° WNW 21:55:25 28° N 21:55:39 27° N visible
